Погода Северо-Курильск

Погода Северо-Курильск : погода сейчас, прогноз погоды и архив. Всё, что Вы хотите узнать о погоде Северо-Курильск!

Хотите узнать прогноз погоды Северо-Курильск? Тогда Вам сюда: Погода Северо-Курильск

Поиск расширенной информации на нашем сайте:

Другие новости

Новости СМИ2

Главная страница сайта

Новости сайта

03.07.2017

Напоминаем, что на нашем специализированном сайте Метеоцентр.Азия вы можете получить высокодетализированные автоматические прогнозы погоды по пунктам России, СНГ и мира в авиационном формате (включающие направление и скорость ветра, видимость, явления погоды, количество и форму облачности, нижнюю и верхнюю границу облачности).


Погода Северо-Курильск - сегодня

Время (UTC), дата Ветер
(°,м/с) 
Видим.   Явления Облачность Т
(°С)
Тd
(°С)
f(%) Тe
(°С)
Pmin
(гПа)
dP
(гПа)
Po
(мм)
O2
(г/м3)
Тmin Tmax R s Состояние
почвы
00 12.05.18 020 (С) 11-17{17}  17000 м  слаб. ливневой дождь  9/8 300 м кучево-дожд., средняя, верхняя 
[Cb cap|Ac trans|Cc]
+2.5 +0.6 87 -2  992.9  742  296  +1.6         
21 12.05.18 290 (З) 6-10{11}  60000 м    3/1 1000 м средняя 
[Cu med, cong|Ac trans]
+7.8 -0.6 55 +6  1006.8  2.1  753  295  +2.7        влажная 
03 13.05.18 340 (С) 2-4{10}  60000 м    ясно 
+7.8 +2 67 +8  1011.4  2.4  756  296           
12 13.05.18 тихо () {05}  0500 м  туман  ?/?  
+0.6 -0.4 93 +1  1017.2  1.6  761  306           
15 13.05.18 тихо () {03}  0500 м  туман  ?/?  
-0.1 -1 94 -0  1017.6  0.3  761  307           
18 13.05.18 тихо () {01}  0500 м  туман  ?/?  
-0.3 -1.1 94 -0  1018.8  1.2  762  307           
21 13.05.18 тихо () {02}  3500 м  туман на расстоянии  ясно 
+3.4 +2.5 94 +3  1019.4  0.7  762  303  -0.6        влажная 
21 14.05.18 130 (ЮВ) 3-6{05}  1600 м  ливневой дождь{морось}  10/10 100 м кучево-дожд. 
[Cb cap]
+1.9 +0.7 92 1020.6  0.9  763  305  +1.2      влажная 
00 15.05.18 160 (Ю) 2-4{06}  1000 м  сильн. морось{ливн. осадки}  10/10 100 м 
[St]
+2.4 +1.2 92 +2  1020.7  0.1  763  305           
21 15.05.18 010 (С) 3-6{08}  11000 м  слаб. ливневой дождь  10/10 300 м кучево-дожд. 
[Cb cap]
+2.7 +0.7 87 +1  1012.4  -0.2  757  302  +2.3      влажная 
00 16.05.18 010 (С) 4-7{09}  17000 м  слаб. ливневой дождь  10/10 300 м кучево-дожд. 
[Cb cap]
+3.3 +1.5 88 +1  1010.9  -1.5  756  301           
18 16.05.18 тихо () {05}  30000 м    10/4 600 м средняя 
[Sc|Ac As]
+3.9 -0.2 75 +4  1005.2  -0.4  752  299           
21 16.05.18 360 (С) 2-3{04}  35000 м    10/10 600 м 
[Sc]
+4.8 +0.1 72 +4  1005.3  -0.1  752  298  +3.3        влажная 
00 17.05.18 050 (СВ) 3-6{07}  12000 м  {дождь}  9/9 600 м 
[Sc]
+3.6 +0.6 81 +2  1004.9  -0.4  751  299           
21 17.05.18 290 (З) 2500 м    10/10 600 м кучево-дожд. 
[Cb cap]
+0.9 -0.8 88 -2  993  743  298  +0.9    838  мокрый или
старый снег
10-40% 
00 18.05.18 330 (СЗ) 5-5{11}  12000 м  слаб. ливневой дождь  10/10 600 м кучево-дожд. 
[Cb cap]
+4 +2.8 92 +2  993.8  0.8  743  295           
21 18.05.18 310 (СЗ) 5-9{14}  9000 м  слаб. ливневой дождь  10/10 600 м кучево-дожд. 
[Cb cap]
+5.1 +0.5 72 +3  1007.9  2.2  754  298  +3.9      влажная 
00 19.05.18 330 (СЗ) 5-8{12}  16000 м  слаб. ливневой дождь  10/10 600 м кучево-дожд. 
[Cb cap]
+5.8 +1.4 73 +4  1010.8  2.9  756  298           
18 19.05.18 тихо () {04}  30000 м    9/9 600 м 
[Sc]
+2.9 -1.7 72 +3  1021.6  764  305           
21 19.05.18 100 (В) 2-4{06}  40000 м    10/6 600 м средняя, верхняя 
[Sc|Ac As|Cc]
+3.7 -1.3 70 +3  1021.9  0.2  764  304  +2.9        влажная 
21 20.05.18 350 (С) 4-7{08}  3800 м  слаб. дождь со снегом  10/10 300 м 
[Frnb|Ns]
+0.8 -0.2 93 -2  1010  -1.8  755  303  +0.2    21  мокрый или
старый снег
50-90% 
00 21.05.18 010 (С) 6-13{12}  8000 м  слаб. снег{дождь}  10/10 300 м 
[Frnb|Ns]
+1.7 -0.4 86 -1  1007.1  -2.9  753  302           
21 21.05.18 320 (СЗ) 4-7{15}  19000 м  слаб. ливневой дождь  10/10 600 м кучево-дожд. 
[Cb cap]
+6.4 +0.3 65 +5  996.2  0.1  745  293  +1.1    мокрый или
старый снег
10-40% 
00 22.05.18 300 (СЗ) 11-20{22}  20000 м  слаб. ливневой дождь  9/9 600 м кучево-дожд. 
[Cb cap]
+4.4 +0.8 77 996.6  0.6  745  295           
15 22.05.18 250 (З) 6-12{17}  4000 м    ясно 
+3.7 -1.7 68 +1  999  747  297           
Время (UTC), дата Ветер
(°,м/с) 
Видим.   Явления Облачность Т
(°С)
Тd
(°С)
f(%) Тe
(°С)
Pmin
(гПа)
dP
(гПа)
Po
(мм)
O2
(г/м3)
Тmin Tmax R s Состояние
почвы

Для получения пояснительной информации подведите курсор к названию столбца.

ПОГОДА Северо-Курильск - архив

Всё, что Вы хотите узнать о погоде Северо-Курильск - удобно и подробно!

Выберите нужную дату (начиная с 1 января 2015* года) и нажмите кнопку "Найти".
Будут отображены архивные сводки погоды по пункту Северо-Курильск, начиная с указанной даты.


Отображать данные в формате CSV (для использования в таблицах Excel)


Внимание! Наш архив погоды предназначен исключительно для личного некоммерческого использования в познавательных целях. Если Вам необходимы официальные справки о состоянии погоды (для производственных, юридических, коммерческих и т.п. целей), обращайтесь в органы Росгидромета.

*Примечание: данная дата относится к архиву по метеостанциям СССР (Россия, СНГ, Балтия).
Архив по метеостанциям Зарубежной Европы и Азии (кроме Китая) хранится 10 дней, по другим регионам земного шара (Китай, Африка, Америка, Австралия, Океания) - 1 день.

Северо-Курильск - район местоположения метеостанции


Название, широта, долгота, высота метеостанции:
Северо-Курильск 50.7°ш. 156.1°д. 23 м над ур. моря [Российская Федерация]

Дополнительная информация

В oтличие oт бoльшинства пoгoдных сайтoв мы публикуем пoдрoбную метеoинфoрмацию в детальнoм прoфессиoнальнoм фoрмате.

Характеристики температуры и влажнoсти вoздуха измеряются на высoте 2 м в тени вдали oт зданий и деревьев.
Скoрoсть ветра измеряется на высoте 10 м (на урoвне рoста челoвека скoрoсть ветра ниже в 1.5-2 раза). Если метеoстанция нахoдится в гoрoде или в лесу, тo скoрoсть ветра занижена на 2-4 м/с пo сравнению с oткрытым местoм. Скoрoсть ветра над акватoриями крупных рек и oзёр, а также на вершинах хoлмoв на 2-5 м/с выше, чем в oбычных услoвиях.
Атмoсфернoе давление в разных тoчках местнoсти мoжет значительнo oтличаться oт давления на метеoстанции, в зависимoсти oт услoвий рельефа (при пoдъёме на 10 м давление пoнижается примернo на 1 мм рт.ст.).